Location: Oriwa
(40.7500°S, 175.3333°E)
Time: 12:01:42
(UTC+00:00)

Cosmos 1300 - Pass Details

Date: 03 February 2023
Orbit: 496 x 500 km, 82.5° (Epoch: 31 March)

Event Time Altitude Azimuth Distance (km) Brightness Sun altitude
Rises 16:41:00 0° 203° (SSW) 2,626 6.4 -8.9°
Reaches altitude 10° 16:43:27 10° 217° (SW) 1,731 5.3 -8.5°
Maximum altitude 16:46:25 22° 269° (W) 1,141 4.0 -8.0°
Drops below altitude 10° 16:49:22 10° 321° (NW) 1,711 4.8 -7.5°
Enters shadow 16:50:11 - 328° (NNW) 1,990 5.1 -7.4°
